Theta_e
317 314 322 318 317 318 317 317 319 321 320 319 318 318 326 322 336 338 357 356 356 360 360 351 349 340 337 340 343 343 343 341 333 332 332 329 330 334 334 339 345 346 345 345 343 342 341 338 327
319 324 320 318 316 316 315 315 318 318 319 317 318 318 318 321 343 349 358 356 357 360 360 357 348 340 337 339 342 343 343 342 336 337 332 328 330 333 335 337 343 345 345 343 340 334 333 327 325
321 325 322 321 316 316 316 315 319 319 317 317 319 317 318 345 344 350 357 357 358 359 358 358 347 340 337 337 340 342 343 343 343 343 338 331 331 334 335 336 340 342 341 338 328 325 325 325 326
319 324 322 320 318 316 314 315 318 318 318 317 316 319 320 344 351 357 359 358 357 358 357 356 345 340 336 334 335 340 343 343 344 345 342 335 331 334 336 338 341 339 334 331 329 325 325 326 327
316 320 321 322 322 320 317 317 317 318 317 317 316 319 319 343 353 356 358 358 357 357 357 356 345 340 336 332 332 336 342 344 344 345 342 336 333 334 337 339 340 336 335 333 328 326 326 326 328
320 319 318 317 319 319 319 317 317 316 316 317 318 317 323 346 350 354 355 357 357 357 358 357 351 341 337 331 329 332 338 342 343 342 340 337 332 335 338 340 339 335 332 328 325 326 326 326 327
319 319 317 319 319 318 319 314 315 314 314 315 316 316 318 333 345 350 354 354 357 357 358 356 354 348 337 331 328 328 331 338 341 342 340 335 332 336 340 340 337 336 335 329 325 327 327 326 327
313 315 315 315 316 315 315 313 312 313 313 314 314 316 317 328 342 345 353 355 357 356 355 357 355 351 348 345 328 327 329 333 337 340 338 334 334 338 341 340 341 336 334 325 327 328 328 326 326
307 312 312 312 312 312 312 314 314 313 313 313 314 314 315 332 342 343 344 353 355 355 354 354 355 353 349 347 345 335 331 333 335 338 337 336 342 344 344 345 339 335 330 329 331 331 328 325 328
311 312 311 310 311 312 313 314 314 312 313 313 314 314 313 323 325 332 342 338 348 351 354 353 353 351 349 347 347 347 346 344 344 343 341 342 345 346 344 342 336 336 335 332 332 330 326 327 335
312 313 312 313 311 312 314 314 314 313 313 314 314 314 314 318 324 324 329 339 341 349 352 352 352 350 350 347 346 346 346 346 346 345 343 343 343 344 343 344 344 344 336 339 336 335 333 332 333
314 313 312 313 314 314 314 314 314 314 314 315 313 313 313 314 318 322 324 328 333 345 350 352 351 350 351 348 345 344 345 345 345 344 343 340 342 345 346 344 343 341 341 339 336 334 326 327 333
314 313 314 315 315 315 314 313 313 314 314 315 314 313 313 314 315 315 322 326 327 335 348 352 352 350 350 349 346 344 344 344 343 344 343 342 343 345 343 340 340 339 339 334 332 332 333 336 340
314 314 315 314 315 314 313 314 311 313 314 314 313 315 315 314 315 314 318 323 330 333 345 353 351 350 349 348 346 345 345 344 344 343 342 337 345 344 340 338 338 340 338 330 334 335 340 342 345
315 316 315 314 314 315 312 315 313 315 315 316 315 317 315 315 315 315 314 319 325 333 341 353 352 351 349 347 347 347 344 344 343 343 344 336 342 340 339 338 338 337 337 331 329 333 336 342 346
316 315 316 315 315 315 315 317 316 316 316 317 318 317 317 318 317 315 313 315 321 327 336 351 352 351 349 347 347 348 345 343 342 343 342 335 339 336 335 339 342 341 337 337 339 341 342 344 346
316 317 317 316 315 315 316 316 316 316 317 317 318 318 317 318 318 316 314 313 315 322 330 342 352 352 350 348 348 347 345 344 343 342 340 332 337 334 334 340 344 341 343 342 342 343 344 344 343
317 317 317 317 316 316 316 317 316 316 316 317 317 317 317 318 318 318 317 314 314 320 330 341 351 351 350 349 348 346 345 342 340 340 337 331 332 332 333 342 342 341 344 343 345 343 342 341 339
315 316 316 316 316 316 317 317 316 316 316 316 317 317 317 318 318 317 317 316 315 321 340 343 347 350 350 349 348 346 344 343 341 340 336 331 336 339 342 345 343 342 343 344 342 342 339 335 334
315 317 317 315 315 316 316 317 317 317 317 317 317 317 317 317 318 319 318 318 316 324 336 342 345 348 348 346 346 345 343 342 341 339 337 336 336 338 343 344 345 342 342 339 341 339 338 335 333
315 318 319 317 317 317 318 320 318 318 318 318 318 318 317 317 318 319 320 318 318 325 336 343 344 348 342 340 345 344 342 341 341 340 341 339 335 337 342 344 342 340 340 341 341 340 339 337 331
318 317 319 319 319 320 319 325 319 318 318 317 318 318 317 317 318 319 320 319 318 321 331 340 344 346 347 344 344 343 344 342 341 340 340 339 333 334 339 344 343 340 340 340 340 339 339 336 333
318 318 316 316 318 318 318 321 317 316 317 317 317 318 317 317 317 317 318 317 317 318 326 337 341 343 343 345 344 344 344 342 340 340 340 340 337 339 342 344 342 340 341 340 339 338 337 333 331
317 315 316 316 317 320 318 318 317 316 317 318 318 317 317 317 317 318 317 317 317 317 322 334 340 341 342 342 342 342 341 340 340 340 341 340 341 341 343 343 341 342 341 339 339 337 333 329 325
315 317 322 322 321 321 318 318 318 317 317 317 318 318 317 317 317 317 318 317 316 316 322 333 339 341 343 341 341 341 341 340 340 341 342 342 341 341 341 342 341 340 339 337 335 332 328 323 320
316 316 321 324 321 319 315 318 315 315 315 316 316 316 316 317 316 316 317 318 317 316 319 328 336 340 342 341 344 342 341 340 341 342 342 341 340 340 341 340 340 338 335 331 327 322 319 317 317
318 321 317 322 320 320 316 315 315 315 316 316 317 316 317 317 317 317 315 315 315 315 316 323 334 337 340 342 342 345 343 342 343 343 342 340 340 340 337 336 336 329 329 325 321 318 318 317 317
316 316 323 322 323 321 316 316 316 315 315 315 316 318 318 318 318 317 317 318 320 319 315 316 326 335 338 340 341 344 345 342 344 343 341 340 339 337 333 332 329 324 322 320 319 318 317 317 315
317 321 319 320 322 322 319 315 315 315 316 316 315 317 317 317 316 316 316 316 317 320 323 315 319 329 336 339 339 338 345 345 343 342 340 339 337 332 330 327 324 322 319 318 317 316 315 314 312
316 318 318 322 321 321 320 319 315 315 316 316 315 314 314 315 313 314 315 314 315 317 321 326 317 325 332 337 338 340 342 344 343 340 338 335 332 329 325 323 318 317 317 317 316 313 312 310 308
Wind_Speed
6 2 3 1 3 2 3 1 2 2 1 3 7 6 5 8 5 8 8 6 9 25 27 34 37 36 33 32 36 37 37 35 33 34 34 33 33 32 30 29 26 23 20 18 17 16 14 12 13
3 3 2 2 3 4 3 1 3 4 6 11 7 3 3 2 8 14 12 7 12 28 26 27 36 36 34 32 35 36 36 35 34 32 30 31 33 32 30 29 25 20 18 17 15 14 13 12 12
3 2 1 2 3 7 2 4 4 6 5 8 6 2 4 6 14 15 18 2 11 24 28 28 37 36 34 33 34 35 35 34 33 31 30 29 30 30 28 26 23 19 17 16 14 12 12 12 12
1 2 3 3 9 2 1 4 3 5 5 8 7 4 4 9 15 16 11 3 13 18 24 30 37 35 33 32 32 33 35 34 32 31 29 28 29 29 27 24 21 18 17 16 14 13 11 10 11
4 1 2 3 5 3 2 2 4 5 3 8 10 7 12 10 16 15 8 3 11 16 18 24 35 34 32 30 29 30 31 32 33 31 29 26 27 28 26 24 20 19 16 14 13 12 11 10 10
2 0 3 8 6 3 3 2 2 4 4 10 9 12 4 7 14 13 10 4 9 13 18 18 25 31 29 28 29 29 29 30 30 29 27 26 26 27 25 22 20 18 15 13 12 12 11 9 8
1 1 1 1 2 2 1 3 0 8 9 8 11 10 5 8 8 7 7 3 9 13 16 18 18 23 27 26 26 27 28 28 27 26 26 25 26 25 23 20 18 16 13 11 11 10 10 9 8
3 2 3 2 3 4 3 10 8 8 10 8 3 3 5 5 2 5 8 7 8 14 14 16 18 19 17 19 24 25 26 27 27 25 24 25 26 24 21 18 14 13 12 11 10 9 8 8 8
1 2 3 2 3 1 7 9 6 8 9 10 7 11 7 3 5 3 6 10 6 11 13 15 16 18 17 17 18 22 23 25 25 24 24 23 18 19 18 14 13 11 10 9 8 7 7 8 8
2 1 2 1 4 5 8 8 11 6 8 9 13 12 10 4 3 4 3 9 5 6 10 14 15 16 17 16 18 17 17 18 20 21 22 19 16 16 15 13 12 10 8 8 6 6 6 7 6
1 2 1 7 4 3 11 13 5 9 8 8 12 10 7 7 5 5 6 6 10 13 13 15 18 18 17 17 18 17 18 18 17 19 21 19 17 15 13 11 11 9 8 5 5 5 6 7 6
4 4 4 5 13 12 14 11 12 15 15 13 11 11 13 11 8 8 10 10 11 15 20 17 20 20 19 17 18 18 19 20 19 19 21 21 18 16 14 13 11 9 7 5 4 5 7 8 6
3 3 7 13 16 14 15 17 18 16 18 15 14 13 14 14 14 14 13 11 13 17 21 27 24 24 24 19 19 18 19 20 20 20 20 20 19 18 15 13 10 8 6 6 6 6 6 5 5
3 11 16 12 12 8 8 12 4 12 12 9 9 11 13 16 20 16 13 15 17 17 21 27 31 31 27 25 22 21 19 20 20 20 20 24 19 18 15 14 11 9 8 7 7 7 6 4 4
7 10 12 5 4 11 3 9 8 9 9 14 12 12 11 11 15 15 18 17 19 20 19 27 30 32 32 31 26 24 23 21 21 20 19 26 22 20 17 13 11 10 9 9 9 8 7 4 4
7 4 11 10 13 6 8 21 10 14 5 11 16 12 11 16 13 14 15 17 17 18 23 25 31 33 35 35 29 25 23 22 21 21 20 24 23 22 18 14 12 11 10 10 9 9 7 6 6
5 14 20 21 6 14 11 20 15 14 18 17 14 15 13 14 14 12 13 15 15 19 21 24 29 34 35 34 29 25 24 23 20 19 20 25 24 24 20 14 13 14 10 10 9 9 9 9 8
23 23 22 24 21 21 24 26 23 22 17 17 17 15 14 13 16 14 14 14 14 14 20 23 29 34 35 34 30 26 25 23 22 20 21 25 27 26 22 15 14 13 11 10 10 12 11 10 9
16 20 25 26 22 25 24 26 25 21 21 19 18 16 16 15 17 17 17 15 10 12 17 24 28 31 33 33 32 29 28 28 29 21 23 26 25 22 22 16 16 15 14 13 15 14 13 10 10
16 20 26 24 18 17 22 29 27 21 25 23 23 22 19 17 15 16 16 15 13 12 17 20 27 30 38 30 30 23 29 23 24 27 25 25 25 25 23 19 17 18 14 16 19 17 13 7 9
14 16 18 19 19 17 20 31 23 21 19 19 21 21 20 20 17 15 14 16 16 12 17 22 26 28 35 34 24 17 22 12 18 22 22 24 26 27 26 22 20 20 18 18 22 18 14 11 7
13 6 10 17 16 13 9 17 18 20 20 17 17 17 17 18 15 15 15 15 19 21 16 20 23 26 25 25 24 27 22 22 21 25 28 29 33 31 29 26 25 22 21 20 19 17 12 10 8
12 11 16 17 18 17 19 11 10 10 15 18 15 13 12 14 15 16 16 19 23 26 20 19 22 25 26 33 30 27 25 25 23 25 25 26 29 27 28 28 26 25 23 22 20 16 13 9 8
9 14 21 14 8 8 18 16 12 8 8 9 3 4 2 6 10 13 16 18 21 24 25 20 23 26 27 31 32 31 29 26 23 25 24 26 26 25 24 28 27 26 23 24 19 15 12 10 9
8 13 6 3 3 6 3 9 14 20 20 14 13 12 5 2 6 9 12 12 16 21 24 21 22 24 30 29 33 35 29 30 26 26 26 25 25 24 28 29 26 25 26 23 20 17 14 15 14
21 8 5 6 5 12 12 9 5 9 12 13 13 8 1 4 5 8 11 11 14 18 17 24 22 23 27 32 33 35 45 34 29 28 25 26 27 33 32 30 28 27 26 24 21 21 19 20 17
2 6 2 6 12 8 6 9 16 8 7 3 8 6 5 7 8 10 5 6 10 12 16 19 21 22 24 30 31 34 37 30 27 29 32 30 31 29 29 27 31 27 25 25 25 23 20 21 17
12 1 4 4 5 6 6 11 11 17 13 2 5 8 8 7 8 8 8 9 10 10 14 15 19 23 22 25 29 29 38 37 30 29 31 33 35 35 30 29 32 29 27 27 27 23 24 22 17
6 3 5 4 5 6 11 8 6 14 12 8 10 5 6 7 9 9 9 11 12 12 12 13 15 21 22 25 24 26 23 30 36 33 33 36 37 36 33 31 33 30 30 30 30 26 22 22 20
15 15 10 6 7 8 9 13 17 18 15 7 5 5 7 8 10 12 11 11 13 13 14 13 12 18 21 21 23 30 34 26 31 35 35 38 36 33 32 33 33 30 32 32 33 23 23 21 20
Wind_Direction
356 85 114 41 209 276 239 228 311 64 352 304 307 254 299 319 276 304 351 219 165 163 167 173 168 166 167 166 169 165 163 163 162 162 162 159 160 162 159 159 155 151 149 150 152 154 155 154 148
26 106 68 107 213 219 213 317 92 355 335 311 313 273 253 312 10 322 354 335 172 161 164 165 171 167 169 167 169 165 166 164 164 164 163 162 164 165 163 162 161 157 156 154 158 158 158 154 147
100 62 202 153 196 228 195 143 19 333 341 5 341 350 350 352 348 331 335 257 172 164 163 166 171 170 171 171 167 167 168 168 167 166 165 165 166 166 165 164 164 163 161 157 155 157 158 154 148
144 140 96 224 223 216 108 133 340 349 358 8 348 318 353 47 346 336 342 173 168 171 163 169 174 173 172 174 169 170 172 172 172 170 170 169 168 168 167 165 164 165 162 158 156 155 154 155 151
47 112 167 214 238 276 249 278 325 23 2 333 343 333 325 12 2 6 12 135 168 168 169 167 175 175 174 174 173 172 174 175 175 174 173 172 171 171 169 167 167 166 166 161 156 154 154 155 158
117 317 204 228 230 247 256 260 234 13 325 320 318 326 318 352 17 21 26 82 160 167 166 167 173 177 177 177 174 176 176 176 177 178 177 174 173 173 171 170 168 165 162 158 155 155 153 156 155
118 170 249 306 295 262 247 325 30 337 310 298 325 306 302 359 9 41 52 69 153 164 164 163 164 172 180 180 178 178 177 180 183 183 180 175 174 174 174 171 167 164 161 157 154 153 153 154 151
87 79 140 198 208 251 299 325 316 299 294 311 291 265 316 351 51 56 81 95 143 162 171 166 161 162 165 173 181 178 178 180 181 182 182 178 176 177 177 174 176 172 166 161 159 155 153 151 151
137 175 184 201 200 273 336 331 317 300 260 274 251 289 317 293 247 284 84 90 130 159 167 170 167 160 166 169 174 177 180 179 177 179 180 179 172 175 176 177 182 180 173 168 167 156 160 153 154
29 263 186 269 308 295 314 309 315 302 287 267 268 268 265 260 276 281 233 131 163 157 168 176 166 163 167 169 168 166 168 173 170 172 174 172 176 175 175 174 182 187 185 181 175 170 170 157 157
78 281 239 286 235 265 301 290 293 284 276 287 293 278 282 262 257 269 263 225 168 186 187 182 178 179 174 174 171 171 175 176 178 177 176 176 175 175 176 176 180 182 188 185 184 178 175 172 170
281 301 270 281 295 288 281 286 274 271 272 278 285 277 291 263 268 265 254 237 211 189 196 188 187 188 182 181 178 179 182 182 181 184 182 179 175 177 179 178 183 183 188 185 187 188 177 166 171
208 287 277 282 279 283 271 261 258 268 269 268 268 269 262 261 276 272 251 237 227 217 206 190 184 190 187 183 185 186 191 189 187 185 186 184 182 180 179 182 182 182 182 177 186 179 172 174 181
271 292 290 287 282 263 278 290 248 246 268 297 287 285 269 265 273 277 252 235 221 219 212 196 187 188 187 188 189 189 197 196 192 188 191 189 187 185 181 183 186 191 189 178 176 175 171 181 203
292 299 311 224 290 313 258 269 239 269 287 293 279 287 278 271 276 265 257 243 223 220 211 200 192 184 185 189 194 194 193 200 196 193 194 192 191 192 186 184 189 190 188 183 178 182 185 191 181
301 274 307 302 302 271 307 284 263 291 276 281 289 286 288 294 283 280 269 251 227 214 213 208 191 187 185 191 193 200 194 200 204 196 195 194 196 196 195 186 183 182 179 184 184 189 191 185 170
271 290 298 302 282 296 271 292 285 278 282 282 275 285 283 288 288 278 278 260 240 222 211 210 198 190 185 185 191 195 194 197 204 205 197 198 197 199 198 195 185 181 184 194 193 196 184 170 158
300 294 290 285 294 285 282 280 282 277 269 266 270 271 272 273 273 279 284 272 250 230 215 205 200 192 185 183 187 191 201 206 210 213 206 200 200 199 197 192 193 183 186 178 172 164 154 160 145
295 290 285 284 285 287 282 279 278 279 273 266 267 262 260 258 265 274 277 274 252 218 204 201 201 195 188 185 185 188 187 199 202 214 210 206 201 196 192 189 200 197 186 174 176 159 149 131 146
293 291 284 284 288 280 284 276 278 276 271 268 264 261 251 252 241 258 254 265 260 207 213 205 208 200 185 194 187 193 190 194 202 210 209 209 204 200 197 196 194 190 188 181 176 165 157 155 186
303 289 294 296 307 281 279 276 276 273 263 263 257 249 249 241 234 237 240 243 258 220 207 207 211 210 197 198 193 171 182 173 191 203 204 205 206 205 202 195 187 190 195 185 180 180 176 171 184
294 302 298 302 306 298 335 287 290 286 276 262 252 243 238 231 229 232 235 242 244 246 218 205 211 211 208 196 192 190 182 194 196 197 199 204 206 206 202 199 193 193 195 188 182 181 188 186 167
289 302 307 299 283 291 262 263 278 287 277 272 268 258 238 239 234 234 235 238 243 245 236 213 203 207 205 205 202 196 190 198 189 195 195 198 201 204 199 199 195 193 191 183 180 185 190 189 163
293 306 304 289 277 257 277 244 287 293 280 302 325 26 286 239 237 240 239 229 235 237 236 219 206 199 203 195 193 190 189 186 188 185 184 189 185 193 198 198 195 190 181 182 174 178 182 167 161
278 322 302 256 218 264 330 308 259 279 279 279 293 323 337 295 277 253 242 230 228 239 229 228 208 199 192 201 192 192 191 202 199 178 180 176 174 181 192 191 187 182 178 175 167 162 155 144 137
288 266 272 297 289 301 294 263 266 278 295 291 296 296 96 27 348 289 260 255 233 235 231 225 218 203 194 193 195 186 194 197 189 180 181 176 178 184 190 183 179 176 169 157 150 139 136 130 123
313 219 295 271 257 268 241 267 286 309 281 333 36 51 75 51 17 8 356 305 287 270 258 227 226 218 206 195 198 190 182 186 187 181 179 175 178 176 178 172 170 168 158 150 144 135 132 123 119
241 123 258 209 274 259 259 273 275 289 284 19 42 68 56 36 9 0 360 355 347 311 280 259 236 228 212 204 193 211 176 179 182 176 169 171 176 177 167 165 166 160 147 144 139 133 130 119 106
272 230 232 275 239 277 281 271 267 276 276 302 344 85 350 338 335 338 338 340 333 332 315 280 246 234 218 204 202 194 199 175 175 174 172 176 175 168 165 160 162 154 144 140 140 132 124 114 109
258 263 259 255 263 248 280 271 268 269 276 300 328 339 340 316 317 317 320 322 320 324 325 320 255 235 226 212 200 178 189 180 177 165 167 169 161 157 153 153 150 143 139 142 135 125 116 116 110